EW1210 Westbrook CT US current weather conditions

sailwx.info

Wind from 308 at 2 knots gusting 6

Air temperature 4.4° C
Dewpoint -0.2° C

Last reported at 2019-Dec-05 16:00 UTC.
Time now 2019-Dec-05 16:51 UTC

Location: N 41°18' W 072°27'.
View on Google Maps.

See reports from other nearby stations

  
Tides and Currents Weather Stations Pressure Air Temp Water Temp Dewpoint Dewpoint Depression Visibility Wind Speed Wind Dir Waves Ship Positions
date/time (UTC)wind fromknots sea level pressurealtimeterstation pressurevisibilityair tempwater tempwave heightnotes
2019-Dec-05 16:00 308 2 gusting 6 4.4
2019-Dec-05 15:45 277 1 gusting 7 5.0
2019-Dec-05 15:30 041 2 gusting 8 5.6
2019-Dec-05 15:15 358 1 gusting 6 5.0
2019-Dec-05 15:00 311 1 gusting 5 4.4
2019-Dec-05 14:45 283 2 gusting 4 4.4
2019-Dec-05 14:32 316 1 gusting 4 3.3
2019-Dec-05 14:17 278 2.8
2019-Dec-05 14:01 328 2.8
2019-Dec-05 13:46 324 2.2
2019-Dec-05 13:31 302 0 gusting 3 1.7
2019-Dec-05 13:18 270 1.1
2019-Dec-05 13:01 250 0.6
2019-Dec-05 12:46
2019-Dec-05 12:30
2019-Dec-05 12:16
2019-Dec-05 12:00
2019-Dec-05 11:45
2019-Dec-05 11:30
2019-Dec-05 11:15
2019-Dec-05 11:00
2019-Dec-05 10:47
2019-Dec-05 10:32
2019-Dec-05 10:17
2019-Dec-05 10:01
2019-Dec-05 09:45
2019-Dec-05 09:32
2019-Dec-05 09:15
2019-Dec-05 09:00
2019-Dec-05 08:45
2019-Dec-05 08:30
2019-Dec-05 08:15
2019-Dec-05 08:00
2019-Dec-05 07:45
2019-Dec-05 07:30
2019-Dec-05 07:17 310 -0.6
2019-Dec-05 07:01 310 -0.6
2019-Dec-05 06:46 311 -0.0
2019-Dec-05 06:33 327 -0.0
2019-Dec-05 06:16 065 -0.6
2019-Dec-05 06:02 272 -0.6
2019-Dec-05 05:46 301 -0.0
2019-Dec-05 05:31 291 -0.0
2019-Dec-05 05:17 243 -0.6
2019-Dec-05 05:01 060 -0.6
2019-Dec-05 04:46 260 -0.0
2019-Dec-05 04:31 107 -0.0
2019-Dec-05 04:17 107 -0.0
2019-Dec-05 04:01 107 -0.0
2019-Dec-05 03:45 203 -0.0
2019-Dec-05 03:31 203 -0.0
2019-Dec-05 03:16 068 -0.6
2019-Dec-05 03:02 068 -0.6
2019-Dec-05 02:46 068 -0.6
2019-Dec-05 02:32 068 -0.0
2019-Dec-05 02:16 068 0.6
2019-Dec-05 02:01 068 0.6
2019-Dec-05 01:46 068 1.1
2019-Dec-05 01:31 262 1.1
2019-Dec-05 01:16 001 1.7
2019-Dec-05 01:01 229 1.7
2019-Dec-05 00:46 271 1.7
2019-Dec-05 00:30 330 1.7
2019-Dec-05 00:16 043 1.7
2019-Dec-05 00:01 046 1.7
2019-Dec-04 23:46 044 2.2
2019-Dec-04 23:31 236 0 gusting 2 2.2
2019-Dec-04 23:16 330 2.2
2019-Dec-04 23:01 277 2.2
2019-Dec-04 22:46 359 2.2
2019-Dec-04 22:31 020 2.2
2019-Dec-04 22:16 283 2.2
2019-Dec-04 22:00 213 2.2
2019-Dec-04 21:45 287 0 gusting 2 2.2
2019-Dec-04 21:30 269 2.2
2019-Dec-04 21:16 284 2.2
2019-Dec-04 21:01 264 0 gusting 2 2.8
2019-Dec-04 20:45 250 2.2
2019-Dec-04 20:30 252 2.8
2019-Dec-04 20:16 273 2.8
2019-Dec-04 20:01 266 2.8
2019-Dec-04 19:46 308 2.2
2019-Dec-04 19:31 309 2.2
2019-Dec-04 19:15 318 0 gusting 3 2.2
2019-Dec-04 19:01 253 2.2
2019-Dec-04 18:45 233 2.2
2019-Dec-04 18:30 297 2.2
2019-Dec-04 18:16 275 2.2
2019-Dec-04 18:00 294 2.2
2019-Dec-04 17:45 317 1 gusting 5 2.2
2019-Dec-04 17:30 281 2.2
2019-Dec-04 17:15 281 0 gusting 1 2.2
2019-Dec-04 17:00 275 1.7
2019-Dec-04 16:45 270 0 gusting 3 1.7
2019-Dec-04 16:30 281 0 gusting 2 1.7
2019-Dec-04 16:15 308 1.1
2019-Dec-04 16:00 268 1 gusting 3 1.1
2019-Dec-04 15:45 236 1.1
2019-Dec-04 15:30 229 1.7
2019-Dec-04 15:15 345 1.1
2019-Dec-04 15:00 275 1.1
2019-Dec-04 14:45 289 0 gusting 1 1.1
2019-Dec-04 14:31 268 0.6
2019-Dec-04 14:16 328 0 gusting 3 0.6
2019-Dec-04 14:02 288 0 gusting 3 -0.0
2019-Dec-04 13:46 293 -0.0
2019-Dec-04 13:31 277 -0.6
2019-Dec-04 13:17 296 -1.1
2019-Dec-04 13:01 278 -1.7
2019-Dec-04 12:45 264 -2.2
2019-Dec-04 12:31
2019-Dec-04 12:16
2019-Dec-04 12:00
2019-Dec-04 11:46
2019-Dec-04 11:31
2019-Dec-04 11:15
2019-Dec-04 11:00
2019-Dec-04 10:45
2019-Dec-04 10:30
2019-Dec-04 10:18
2019-Dec-04 10:01
2019-Dec-04 09:47
2019-Dec-04 09:32
2019-Dec-04 09:17
2019-Dec-04 09:01
2019-Dec-04 08:46
2019-Dec-04 08:31
2019-Dec-04 08:15
2019-Dec-04 08:01
2019-Dec-04 07:45
2019-Dec-04 07:30 218 0 gusting 0 -2.2
2019-Dec-04 07:15 266 -2.2
2019-Dec-04 07:00 280 -2.2
2019-Dec-04 06:45 276 -2.2
2019-Dec-04 06:30 274 -2.2
2019-Dec-04 06:15 293 -2.2
2019-Dec-04 06:00 354 -2.2
2019-Dec-04 05:45 311 -2.2
2019-Dec-04 05:30 340 0 gusting 2 -2.2
2019-Dec-04 05:17 316 0 gusting 4 -2.2
2019-Dec-04 05:01 304 0 gusting 2 -2.2
2019-Dec-04 04:46 292 0 gusting 4 -1.7
2019-Dec-04 04:32 238 0 gusting 5 -1.7
2019-Dec-04 04:18 319 1 gusting 4 -1.7
2019-Dec-04 04:01 312 0 gusting 4 -1.7
2019-Dec-04 03:46 287 0 gusting 3 -1.7
2019-Dec-04 03:31 262 1 gusting 3 -1.7
2019-Dec-04 03:17 257 -1.7
2019-Dec-04 03:02 300 0 gusting 2 -1.7
2019-Dec-04 02:46 335 0 gusting 3 -1.7
2019-Dec-04 02:32 298 -1.7
2019-Dec-04 02:16 293 -1.7
2019-Dec-04 02:01 149 -1.7
2019-Dec-04 01:46 249 -1.7
2019-Dec-04 01:32 191 -1.7
2019-Dec-04 01:16 294 -1.1
2019-Dec-04 01:00 277 -1.1
2019-Dec-04 00:46 345 0 gusting 2 -1.1
2019-Dec-04 00:32 330 -1.1
2019-Dec-04 00:16 307 -1.1
2019-Dec-04 00:01 302 -0.6
2019-Dec-03 23:46 230 -0.6
2019-Dec-03 23:31 314 0 gusting 2 -0.6
2019-Dec-03 23:16 064 -0.6
2019-Dec-03 23:00 078 0 gusting 4 -0.6
2019-Dec-03 22:46 271 -0.0
2019-Dec-03 22:31 317 1 gusting 4 -0.0
2019-Dec-03 22:15 293 0 gusting 5 0.6
2019-Dec-03 22:01 273 1 gusting 6 0.6
2019-Dec-03 21:46 023 4 gusting 11 0.6
2019-Dec-03 21:31 324 3 gusting 9 0.6
2019-Dec-03 21:15 357 2 gusting 7 0.6
2019-Dec-03 21:01 355 2 gusting 9 1.1
2019-Dec-03 20:45 333 0 gusting 5 1.1
2019-Dec-03 20:30 349 2 gusting 6 1.7
2019-Dec-03 20:16 293 1 gusting 6 1.7
2019-Dec-03 20:00 039 2 gusting 7 1.7
2019-Dec-03 19:46 288 2 gusting 6 1.7
2019-Dec-03 19:31 080 2 gusting 9 1.7
2019-Dec-03 19:16 033 2 gusting 7 1.7
2019-Dec-03 19:00 060 3 gusting 12 2.2
2019-Dec-03 18:45 063 2 gusting 10 1.7
2019-Dec-03 18:30 023 4 gusting 9 1.1
2019-Dec-03 18:15 316 1 gusting 6 1.1
2019-Dec-03 18:00 082 1 gusting 6 1.1
2019-Dec-03 17:45 300 2 gusting 10 1.1
2019-Dec-03 17:30 328 2 gusting 6 1.1
2019-Dec-03 17:15 030 3 gusting 8 1.1
2019-Dec-03 17:00 284 1 gusting 6 0.6
2019-Dec-03 16:45 021 1 gusting 5 0.6
2019-Dec-03 16:32 328 1 gusting 6 0.6
2019-Dec-03 16:16 276 2 gusting 6 -0.0
2019-Dec-03 16:01 340 2 gusting 6 -0.0